Odessa, TX

12:09 AM CDT on May 28, 2017 (GMT -0500)
Odessa-Schlemeyer

Weather History for KODO - June, 2013

Change the Weather History Date:

Monday, June 17, 2013

  Actual Average (KMAF) Record (KMAF)
Temperature  
Mean Temperature 84 °F -  
Max Temperature 98 °F 91 °F 108 °F (2011)
Min Temperature 71 °F 66 °F 49 °F (1981)
Cooling Degree Days 20    
Growing Degree Days 34 (Base 50)    
Moisture  
Dew Point 65 °F    
Average Humidity 65    
Maximum Humidity 88    
Minimum Humidity 25    
Precipitation  
Precipitation 0.02 in - - ()
Sea Level Pressure  
Sea Level Pressure 29.91 in    
Wind  
Wind Speed 11 mph (South)    
Max Wind Speed 34 mph    
Max Gust Speed 47 mph    
Visibility 9 miles    
Events Rain , Thunderstorm    
Averages and records for this station are not official NWS values.
T = Trace of Precipitation, MM = Missing Value Source: NWS Daily Summary

Daily Weather History Graph

Daily Weather History Graph

Search for Another Location

Airport or City:

Trip Planner

Search our weather history database for the weather conditions in past years. The results will help you decide how hot, cold, wet, or windy it might be!

Date:

Astronomy

Jun. 17, 2013 Rise Set
Actual Time 6:43 AM CDT 8:57 PM CDT
Civil Twilight 6:15 AM CDT 9:25 PM CDT
Nautical Twilight 5:40 AM CDT 10:00 PM CDT
Astronomical Twilight 5:03 AM CDT 10:37 PM CDT
Moon 2:55 PM CDT (6/17) 2:01 AM CDT (6/17)
Length of Visible Light 15h 10m
Length of Day
14h 14m
First Quarter, 60% of the Moon is Illuminated
Jun 17
First Quarter
Jun 23
Full
Jun 29
Last Quarter
Jul 8
New
Jul 15
First Quarter

Hourly Weather History & Observations

Time (CDT) Temp. Heat Index Dew Point Humidity Pressure Visibility Wind Dir Wind Speed Gust Speed Precip Events Conditions
12:53 AM 77.0 °F - 69.1 °F 76% 29.84 in 10.0 mi South 12.7 mph - N/A   Clear
1:53 AM 75.0 °F - 69.1 °F 82% 29.86 in 10.0 mi South 9.2 mph - N/A   Clear
2:21 AM 75.2 °F - 69.8 °F 83% 30.00 in 10.0 mi South 6.9 mph - N/A   Mostly Cloudy
2:53 AM 75.0 °F - 69.1 °F 82% 29.84 in 8.0 mi South 8.1 mph - N/A   Mostly Cloudy
3:53 AM 75.0 °F - 69.1 °F 82% 29.84 in 8.0 mi South 6.9 mph - N/A   Mostly Cloudy
4:11 AM 75.2 °F - 69.8 °F 83% 29.99 in 8.0 mi South 9.2 mph - N/A   Mostly Cloudy
4:18 AM 75.2 °F - 69.8 °F 83% 30.01 in 8.0 mi SSW 4.6 mph - N/A   Scattered Clouds
4:53 AM 75.0 °F - 70.0 °F 84% 29.87 in 7.0 mi NW 3.5 mph - N/A   Scattered Clouds
5:05 AM 75.2 °F - 69.8 °F 83% 30.02 in 8.0 mi NNW 5.8 mph - N/A   Mostly Cloudy
5:29 AM 75.2 °F - 69.8 °F 83% 30.00 in 8.0 mi East 6.9 mph - N/A   Scattered Clouds
5:53 AM 75.0 °F - 70.0 °F 84% 29.83 in 7.0 mi SSE 10.4 mph - N/A   Clear
6:53 AM 73.9 °F - 70.0 °F 87% 29.82 in 7.0 mi SSE 10.4 mph - N/A   Clear
7:46 AM 73.4 °F - 69.8 °F 88% 29.99 in 7.0 mi SSE 13.8 mph - N/A   Mostly Cloudy
7:53 AM 73.9 °F - 70.0 °F 87% 29.84 in 7.0 mi SSE 18.4 mph 21.9 mph N/A   Mostly Cloudy
8:46 AM 75.2 °F - 69.8 °F 83% 30.01 in 8.0 mi South 11.5 mph - N/A   Overcast
8:53 AM 75.0 °F - 69.1 °F 82% 29.87 in 8.0 mi South 12.7 mph - N/A   Overcast
9:17 AM 75.2 °F - 69.8 °F 83% 30.02 in 9.0 mi SSW 8.1 mph - N/A   Partly Cloudy
9:53 AM 78.1 °F - 69.1 °F 74% 29.89 in 9.0 mi Calm Calm - N/A   Partly Cloudy
10:08 AM 78.8 °F - 69.8 °F 74% 30.05 in 10.0 mi Calm Calm - N/A   Mostly Cloudy
10:53 AM 81.0 °F 84.1 °F 69.1 °F 67% 29.90 in 10.0 mi ESE 9.2 mph - N/A   Mostly Cloudy
11:16 AM 82.4 °F 85.4 °F 68.0 °F 62% 30.04 in 10.0 mi East 10.4 mph - N/A   Partly Cloudy
11:53 AM 84.9 °F 87.6 °F 66.9 °F 55% 29.89 in 10.0 mi SE 8.1 mph - N/A   Clear
12:53 PM 88.0 °F 90.3 °F 66.0 °F 48% 29.88 in 10.0 mi ESE 9.2 mph - N/A   Clear
1:53 PM 91.9 °F 92.9 °F 63.0 °F 38% 29.86 in 10.0 mi SSE 11.5 mph 18.4 mph N/A   Clear
2:53 PM 93.0 °F 92.7 °F 60.1 °F 33% 29.83 in 10.0 mi SE 10.4 mph 16.1 mph N/A   Clear
3:53 PM 93.9 °F 93.2 °F 59.0 °F 31% 29.81 in 10.0 mi SSE 8.1 mph 17.3 mph N/A   Clear
4:53 PM 96.1 °F 94.8 °F 57.0 °F 27% 29.78 in 10.0 mi South 6.9 mph 17.3 mph N/A   Partly Cloudy
5:53 PM 96.1 °F 94.1 °F 55.0 °F 25% 29.75 in 10.0 mi SSE 11.5 mph - N/A   Clear
6:53 PM 93.9 °F 92.9 °F 57.9 °F 30% 29.74 in 10.0 mi SSE 13.8 mph - N/A   Clear
7:53 PM 90.0 °F 90.3 °F 62.1 °F 39% 29.78 in 10.0 mi South 18.4 mph 29.9 mph N/A   Clear
8:25 PM 87.8 °F 89.4 °F 64.4 °F 46% 29.99 in 10.0 mi SSW 16.1 mph 28.8 mph N/A Thunderstorm Partly Cloudy
8:43 PM 78.8 °F - 60.8 °F 54% 30.02 in 10.0 mi WSW 18.4 mph 31.1 mph 0.00 in Rain , Thunderstorm Light Rain
8:53 PM 75.0 °F - 61.0 °F 62% 29.89 in 10.0 mi SW 13.8 mph 26.5 mph 0.00 in Rain , Thunderstorm Light Rain
9:05 PM 73.4 °F - 62.6 °F 69% 29.99 in 7.0 mi WSW 34.5 mph 47.2 mph 0.00 in Rain Light Rain
9:12 PM 73.4 °F - 60.8 °F 65% 30.02 in 5.0 mi West 33.4 mph 47.2 mph 0.00 in Rain , Thunderstorm Light Rain
9:36 PM 75.2 °F - 60.8 °F 61% 29.97 in 7.0 mi South 17.3 mph 34.5 mph 0.02 in Rain , Thunderstorm Light Rain
9:53 PM 78.1 °F - 55.9 °F 46% 29.82 in 10.0 mi South 12.7 mph 21.9 mph 0.02 in Thunderstorm Thunderstorm
10:00 PM 77.0 °F - 59.0 °F 54% 29.95 in 10.0 mi SSE 15.0 mph - N/A   Scattered Clouds
10:09 PM 77.0 °F - 57.2 °F 50% 29.96 in 10.0 mi South 9.2 mph - N/A   Partly Cloudy
10:53 PM 78.1 °F - 55.9 °F 46% 29.86 in 10.0 mi NW 3.5 mph - N/A   Clear
11:18 PM 73.4 °F - 60.8 °F 65% 30.02 in 10.0 mi North 19.6 mph 29.9 mph N/A   Clear
11:53 PM 71.1 °F - 64.0 °F 78% 29.89 in 10.0 mi NE 12.7 mph - N/A   Clear